Shreveport Regional Airport
KSHV : now visible

Airfield :











YOU CAN JOIN US ON...

 
LOGIN :

Register | Disclaimer

   EN    FR    IT 

 









Legend :    VFR   Marginal VFR   IFR   Intensive IFR   Very Intensive IFR
Visi :
Ceiling :
>= 8 km
>= 3000ft
5 to 8 km
1000 to 3000 ft
1500m to 5 km
500 to 1000 ft
800 to 1500m
200 to 500 ft
< 800m
< 200 ft
Symbols :   Thunderstorms  Fog  Heavy snow  Heavy precipitations  Wind > 20 kt






- Airport Elevation : 258 ft
- IATA code : SHV


KSHV - Shreveport Regional

CURRENT METAR :
  • 170356Z 16008KT 10SM OVC023 16/12 A2996 RMK AO2 SLP145 T01560122

EXPIRED METARs :
  • 170256Z 16009KT 10SM OVC018 15/12 A2996 RMK AO2 SLP145 T01500122 55000
  • 170211Z 15009KT 10SM OVC015 15/12 A2996 RMK AO2 T01500122
  • 170156Z 15009KT 10SM OVC014 15/12 A2996 RMK AO2 SLP142 T01500122

TAF KSHV
Valid from the 17 at 03:00 until the 18 at 00:00 UTC


170238Z 1703/1724 15009KT P6SM OVC015
FM170700 16006KT P6SM BKN010
FM171200 18008KT P6SM OVC003
FM171700 20013G20KT P6SM OVC015



MET'MAP, your aeronautical weather chart ! - Copyright ORBIFLY December 2007 - Disclaimer

ORBIFLY MET'MAP TEAM :

Programming & Development : Alexandra Zaïnal
Concept & original design : Baudouin d'Aumeries
Assistance for programming : Marc-Olivier Méhu
Technical & hardware support : Manuel Goepfert

Contact : metmap@orbifly.com




SOURCES & CREDITS :

   NOAA       Earth
Advisory